Starlink 35573

operational
NORAD ID: 66116 Int'l Des: 2025-237 Owner: SPXS Country: US Constellation: starlink
LEOCIRCULAR

Über Starlink 35573

Beschreibung wird geladen...

Live-Position

3D-Globus wird geladen...

Nächste Überflüge

Höhenverlauf

Altitude vs Time

uPlot chart will show altitude changes over time

Zweizeiliger Elementsatz

1 66116C 25237C 25298.72548611 -.01136300 00000+0 -20119-2 0 2981
2 66116 53.1553 319.2511 0001000 67.3387 137.1168 16.02327744 15
Epoch: 25. Okt. 2025 • Age: 153 hours

Aktueller Status

Höhe 296.5 km
Geschwindigkeit 7.73 km/s
Subsatellitenpunkt -9.63°S, 50.26°W
Startdatum 22. Okt. 2025
Alter 8 days
Typ internet

Technische Details

Klassifizierung Payload
Masse 575.00 kg
Trockenmasse 530.00 kg
Gesamtmasse 575.00 kg
Länge 0.30 m
Durchmesser 4.10 m
Spannweite 29.00 m
Form Box + pan
Hersteller SPXS
Bus-Typ Starlink V2MO
Phasenstatus In Orbit
Besitzer/Staat SPXS/US

Große Konstellationen

Loading constellations...